owner,sensor,date,latitude,longitude,vertical_datum,mass_concentration_of_oxygen_in_sea_water,qcFlag 
SCCF RECON,ioos:station:SCCF:53:1,2009-12-01T00:00:00Z,26.6493,-81.8810,2.28,7.55,1111122 
SCCF RECON,ioos:station:SCCF:53:1,2009-12-01T01:00:00Z,26.6493,-81.8810,2.29,7.34,1111122 
SCCF RECON,ioos:station:SCCF:53:1,2009-12-01T02:00:00Z,26.6493,-81.8810,2.34,7.31,1111122 
SCCF RECON,ioos:station:SCCF:53:1,2009-12-01T03:00:00Z,26.6493,-81.8810,2.4,7.44,1111122 
SCCF RECON,ioos:station:SCCF:53:1,2009-12-01T04:00:00Z,26.6493,-81.8810,2.46,7.47,1111122 
SCCF RECON,ioos:station:SCCF:53:1,2009-12-01T05:00:00Z,26.6493,-81.8810,2.51,7.29,1111122 
SCCF RECON,ioos:station:SCCF:53:1,2009-12-01T06:00:00Z,26.6493,-81.8810,2.55,7.31,1111122 
SCCF RECON,ioos:station:SCCF:53:1,2009-12-01T07:00:00Z,26.6493,-81.8810,2.55,7.19,1111122 
SCCF RECON,ioos:station:SCCF:53:1,2009-12-01T08:00:00Z,26.6493,-81.8810,2.488,7.25,1111122 
SCCF RECON,ioos:station:SCCF:53:1,2009-12-01T09:00:00Z,26.6493,-81.8810,2.42,7.28,1111122 
SCCF RECON,ioos:station:SCCF:53:1,2009-12-01T10:00:00Z,26.6493,-81.8810,2.36,7.26,1111122 
SCCF RECON,ioos:station:SCCF:53:1,2009-12-01T11:00:00Z,26.6493,-81.8810,2.29,7.21,1111122 
SCCF RECON,ioos:station:SCCF:53:1,2009-12-01T12:00:00Z,26.6493,-81.8810,2.23,7.2,1111122 
SCCF RECON,ioos:station:SCCF:53:1,2009-12-01T13:00:00Z,26.6493,-81.8810,2.17,7.09,1111122 
SCCF RECON,ioos:station:SCCF:53:1,2009-12-01T14:00:00Z,26.6493,-81.8810,2.11,7.05,1111122 
SCCF RECON,ioos:station:SCCF:53:1,2009-12-01T15:00:00Z,26.6493,-81.8810,2.07,6.99,1111122 
SCCF RECON,ioos:station:SCCF:53:1,2009-12-01T16:00:00Z,26.6493,-81.8810,2.06,6.9,1111122 
SCCF RECON,ioos:station:SCCF:53:1,2009-12-01T17:00:00Z,26.6493,-81.8810,2.095,6.95,1111122 
SCCF RECON,ioos:station:SCCF:53:1,2009-12-01T18:00:00Z,26.6493,-81.8810,2.144,7.0,1111122 
SCCF RECON,ioos:station:SCCF:53:1,2009-12-01T19:00:00Z,26.6493,-81.8810,2.191,7.2,1111122 
SCCF RECON,ioos:station:SCCF:53:1,2009-12-01T20:00:00Z,26.6493,-81.8810,2.243,7.15,1111122 
SCCF RECON,ioos:station:SCCF:53:1,2009-12-01T21:00:00Z,26.6493,-81.8810,2.27,7.03,1111122 
SCCF RECON,ioos:station:SCCF:53:1,2009-12-01T22:00:00Z,26.6493,-81.8810,2.268,7.23,1111122 
SCCF RECON,ioos:station:SCCF:53:1,2009-12-01T23:00:00Z,26.6493,-81.8810,2.249,7.38,1111122 
SCCF RECON,ioos:station:SCCF:53:1,2009-12-02T00:00:00Z,26.6493,-81.8810,2.23,7.23,1111122 
SCCF RECON,ioos:station:SCCF:53:1,2009-12-02T01:00:00Z,26.6493,-81.8810,2.23,7.15,1111122 
SCCF RECON,ioos:station:SCCF:53:1,2009-12-02T02:00:00Z,26.6493,-81.8810,2.289,6.92,1111122 
SCCF RECON,ioos:station:SCCF:53:1,2009-12-02T03:00:00Z,26.6493,-81.8810,2.36,7.12,1111122 
SCCF RECON,ioos:station:SCCF:53:1,2009-12-02T04:00:00Z,26.6493,-81.8810,2.42,7.15,1111122 
SCCF RECON,ioos:station:SCCF:53:1,2009-12-02T05:00:00Z,26.6493,-81.8810,2.49,7.14,1111122 
SCCF RECON,ioos:station:SCCF:53:1,2009-12-02T06:00:00Z,26.6493,-81.8810,2.54,7.23,1111122 
SCCF RECON,ioos:station:SCCF:53:1,2009-12-02T07:00:00Z,26.6493,-81.8810,2.57,7.15,1111122 
SCCF RECON,ioos:station:SCCF:53:1,2009-12-02T08:00:00Z,26.6493,-81.8810,2.57,7.28,1111122 
SCCF RECON,ioos:station:SCCF:53:1,2009-12-02T09:00:00Z,26.6493,-81.8810,2.5,7.08,1111122 
SCCF RECON,ioos:station:SCCF:53:1,2009-12-02T10:00:00Z,26.6493,-81.8810,2.44,7.22,1111122 
SCCF RECON,ioos:station:SCCF:53:1,2009-12-02T11:00:00Z,26.6493,-81.8810,2.37,7.12,1111122 
SCCF RECON,ioos:station:SCCF:53:1,2009-12-02T12:00:00Z,26.6493,-81.8810,2.3,7.02,1111122 
SCCF RECON,ioos:station:SCCF:53:1,2009-12-02T13:00:00Z,26.6493,-81.8810,2.24,6.95,1111122 
SCCF RECON,ioos:station:SCCF:53:1,2009-12-02T14:00:00Z,26.6493,-81.8810,2.181,6.96,1111122 
SCCF RECON,ioos:station:SCCF:53:1,2009-12-02T15:00:00Z,26.6493,-81.8810,2.134,6.68,1111122 
SCCF RECON,ioos:station:SCCF:53:1,2009-12-02T16:00:00Z,26.6493,-81.8810,2.131,6.47,1111122 
SCCF RECON,ioos:station:SCCF:53:1,2009-12-02T17:00:00Z,26.6493,-81.8810,2.176,7.09,1111122 
SCCF RECON,ioos:station:SCCF:53:1,2009-12-02T18:00:00Z,26.6493,-81.8810,2.224,7.23,1111122 
SCCF RECON,ioos:station:SCCF:53:1,2009-12-02T19:00:00Z,26.6493,-81.8810,2.275,7.22,1111122 
SCCF RECON,ioos:station:SCCF:53:1,2009-12-02T20:00:00Z,26.6493,-81.8810,2.34,7.38,1111122 
SCCF RECON,ioos:station:SCCF:53:1,2009-12-02T21:00:00Z,26.6493,-81.8810,2.384,7.4,1111122 
SCCF RECON,ioos:station:SCCF:53:1,2009-12-02T22:00:00Z,26.6493,-81.8810,2.417,7.35,1111122 
SCCF RECON,ioos:station:SCCF:53:1,2009-12-02T23:00:00Z,26.6493,-81.8810,2.44,7.32,1111122 
SCCF RECON,ioos:station:SCCF:53:1,2009-12-03T00:00:00Z,26.6493,-81.8810,2.433,7.35,1111122 
SCCF RECON,ioos:station:SCCF:53:1,2009-12-03T01:00:00Z,26.6493,-81.8810,2.401,7.39,1111122 
SCCF RECON,ioos:station:SCCF:53:1,2009-12-03T02:00:00Z,26.6493,-81.8810,2.4,7.14,1111122 
SCCF RECON,ioos:station:SCCF:53:1,2009-12-03T03:00:00Z,26.6493,-81.8810,2.44,7.18,1111122 
SCCF RECON,ioos:station:SCCF:53:1,2009-12-03T04:00:00Z,26.6493,-81.8810,2.49,7.13,1111122 
SCCF RECON,ioos:station:SCCF:53:1,2009-12-03T05:00:00Z,26.6493,-81.8810,2.54,7.1,1111122 
SCCF RECON,ioos:station:SCCF:53:1,2009-12-03T06:00:00Z,26.6493,-81.8810,2.599,7.09,1111122 
SCCF RECON,ioos:station:SCCF:53:1,2009-12-03T07:00:00Z,26.6493,-81.8810,2.645,7.09,1111122 
SCCF RECON,ioos:station:SCCF:53:1,2009-12-03T08:00:00Z,26.6493,-81.8810,2.671,7.15,1111122 
SCCF RECON,ioos:station:SCCF:53:1,2009-12-03T09:00:00Z,26.6493,-81.8810,2.64,7.14,1111122 
SCCF RECON,ioos:station:SCCF:53:1,2009-12-03T10:00:00Z,26.6493,-81.8810,2.575,7.1,1111122 
SCCF RECON,ioos:station:SCCF:53:1,2009-12-03T11:00:00Z,26.6493,-81.8810,2.514,7.13,1111122 
SCCF RECON,ioos:station:SCCF:53:1,2009-12-03T12:00:00Z,26.6493,-81.8810,2.456,7.06,1111122 
SCCF RECON,ioos:station:SCCF:53:1,2009-12-03T13:00:00Z,26.6493,-81.8810,2.39,6.97,1111122 
SCCF RECON,ioos:station:SCCF:53:1,2009-12-03T14:00:00Z,26.6493,-81.8810,2.33,6.96,1111122 
SCCF RECON,ioos:station:SCCF:53:1,2009-12-03T15:00:00Z,26.6493,-81.8810,2.26,6.8,1111122 
SCCF RECON,ioos:station:SCCF:53:1,2009-12-03T16:00:00Z,26.6493,-81.8810,2.19,6.78,1111122 
SCCF RECON,ioos:station:SCCF:53:1,2009-12-03T17:00:00Z,26.6493,-81.8810,2.147,6.72,1111122 
SCCF RECON,ioos:station:SCCF:53:1,2009-12-03T18:00:00Z,26.6493,-81.8810,2.132,6.47,1111122 
SCCF RECON,ioos:station:SCCF:53:1,2009-12-03T19:00:00Z,26.6493,-81.8810,2.16,6.63,1111122 
SCCF RECON,ioos:station:SCCF:53:1,2009-12-03T20:00:00Z,26.6493,-81.8810,2.211,6.55,1111122 
SCCF RECON,ioos:station:SCCF:53:1,2009-12-03T21:00:00Z,26.6493,-81.8810,2.261,6.51,1111122 
SCCF RECON,ioos:station:SCCF:53:1,2009-12-03T22:00:00Z,26.6493,-81.8810,2.292,6.35,1111122 
SCCF RECON,ioos:station:SCCF:53:1,2009-12-03T23:00:00Z,26.6493,-81.8810,2.29,6.66,1111122 
SCCF RECON,ioos:station:SCCF:53:1,2009-12-04T00:00:00Z,26.6493,-81.8810,2.26,6.5,1111122 
SCCF RECON,ioos:station:SCCF:53:1,2009-12-04T01:00:00Z,26.6493,-81.8810,2.221,6.94,1111122 
SCCF RECON,ioos:station:SCCF:53:1,2009-12-04T02:00:00Z,26.6493,-81.8810,2.2,6.56,1111122 
SCCF RECON,ioos:station:SCCF:53:1,2009-12-04T03:00:00Z,26.6493,-81.8810,2.182,6.27,1111122 
SCCF RECON,ioos:station:SCCF:53:1,2009-12-04T04:00:00Z,26.6493,-81.8810,2.225,6.24,1111122 
SCCF RECON,ioos:station:SCCF:53:1,2009-12-04T05:00:00Z,26.6493,-81.8810,2.29,6.48,1111122 
SCCF RECON,ioos:station:SCCF:53:1,2009-12-04T06:00:00Z,26.6493,-81.8810,2.341,6.56,1111122 
SCCF RECON,ioos:station:SCCF:53:1,2009-12-04T07:00:00Z,26.6493,-81.8810,2.4,6.6,1111122 
SCCF RECON,ioos:station:SCCF:53:1,2009-12-04T08:00:00Z,26.6493,-81.8810,2.448,6.68,1111122 
SCCF RECON,ioos:station:SCCF:53:1,2009-12-04T09:00:00Z,26.6493,-81.8810,2.43,6.66,1111122 
SCCF RECON,ioos:station:SCCF:53:1,2009-12-04T10:00:00Z,26.6493,-81.8810,2.38,6.43,1111122 
SCCF RECON,ioos:station:SCCF:53:1,2009-12-04T11:00:00Z,26.6493,-81.8810,2.32,6.36,1111122 
SCCF RECON,ioos:station:SCCF:53:1,2009-12-04T12:00:00Z,26.6493,-81.8810,2.25,6.34,1111122 
SCCF RECON,ioos:station:SCCF:53:1,2009-12-04T13:00:00Z,26.6493,-81.8810,2.192,6.31,1111122 
SCCF RECON,ioos:station:SCCF:53:1,2009-12-04T14:00:00Z,26.6493,-81.8810,2.133,6.24,1111122 
SCCF RECON,ioos:station:SCCF:53:1,2009-12-04T15:00:00Z,26.6493,-81.8810,2.07,6.17,1111122 
SCCF RECON,ioos:station:SCCF:53:1,2009-12-04T16:00:00Z,26.6493,-81.8810,2.01,6.2,1111122 
SCCF RECON,ioos:station:SCCF:53:1,2009-12-04T17:00:00Z,26.6493,-81.8810,1.97,6.33,1111122 
SCCF RECON,ioos:station:SCCF:53:1,2009-12-04T18:00:00Z,26.6493,-81.8810,1.93,6.51,1111122 
SCCF RECON,ioos:station:SCCF:53:1,2009-12-04T19:00:00Z,26.6493,-81.8810,1.95,6.6,1111122 
SCCF RECON,ioos:station:SCCF:53:1,2009-12-04T20:00:00Z,26.6493,-81.8810,1.98,6.37,1111122 
SCCF RECON,ioos:station:SCCF:53:1,2009-12-04T21:00:00Z,26.6493,-81.8810,2.027,6.49,1111122 
SCCF RECON,ioos:station:SCCF:53:1,2009-12-04T22:00:00Z,26.6493,-81.8810,2.063,6.61,1111122 
SCCF RECON,ioos:station:SCCF:53:1,2009-12-04T23:00:00Z,26.6493,-81.8810,2.08,6.76,1111122 
SCCF RECON,ioos:station:SCCF:53:1,2009-12-05T00:00:00Z,26.6493,-81.8810,2.053,7.12,1111122 
SCCF RECON,ioos:station:SCCF:53:1,2009-12-05T01:00:00Z,26.6493,-81.8810,2.02,7.07,1111122 
SCCF RECON,ioos:station:SCCF:53:1,2009-12-05T02:00:00Z,26.6493,-81.8810,1.989,7.08,1111122 
SCCF RECON,ioos:station:SCCF:53:1,2009-12-05T03:00:00Z,26.6493,-81.8810,1.96,7.0,1111122 
SCCF RECON,ioos:station:SCCF:53:1,2009-12-05T04:00:00Z,26.6493,-81.8810,1.96,7.03,1111122 
SCCF RECON,ioos:station:SCCF:53:1,2009-12-05T05:00:00Z,26.6493,-81.8810,2.04,7.07,1111122 
SCCF RECON,ioos:station:SCCF:53:1,2009-12-05T06:00:00Z,26.6493,-81.8810,2.09,7.0,1111122 
SCCF RECON,ioos:station:SCCF:53:1,2009-12-05T07:00:00Z,26.6493,-81.8810,2.15,7.08,1111122 
SCCF RECON,ioos:station:SCCF:53:1,2009-12-05T08:00:00Z,26.6493,-81.8810,2.22,7.06,1111122 
SCCF RECON,ioos:station:SCCF:53:1,2009-12-05T09:00:00Z,26.6493,-81.8810,2.26,6.84,1111122 
SCCF RECON,ioos:station:SCCF:53:1,2009-12-05T10:00:00Z,26.6493,-81.8810,2.29,6.93,1111122 
SCCF RECON,ioos:station:SCCF:53:1,2009-12-05T11:00:00Z,26.6493,-81.8810,2.29,6.94,1111122 
SCCF RECON,ioos:station:SCCF:53:1,2009-12-05T12:00:00Z,26.6493,-81.8810,2.23,6.97,1111122 
SCCF RECON,ioos:station:SCCF:53:1,2009-12-05T13:00:00Z,26.6493,-81.8810,2.187,6.97,1111122 
SCCF RECON,ioos:station:SCCF:53:1,2009-12-05T14:00:00Z,26.6493,-81.8810,2.14,6.85,1111122 
SCCF RECON,ioos:station:SCCF:53:1,2009-12-05T15:00:00Z,26.6493,-81.8810,2.1,6.83,1111122 
SCCF RECON,ioos:station:SCCF:53:1,2009-12-05T16:00:00Z,26.6493,-81.8810,2.048,6.77,1111122 
SCCF RECON,ioos:station:SCCF:53:1,2009-12-05T17:00:00Z,26.6493,-81.8810,2.02,6.69,1111122 
SCCF RECON,ioos:station:SCCF:53:1,2009-12-05T18:00:00Z,26.6493,-81.8810,2.012,6.83,1111122 
SCCF RECON,ioos:station:SCCF:53:1,2009-12-05T19:00:00Z,26.6493,-81.8810,2.036,6.92,1111122 
SCCF RECON,ioos:station:SCCF:53:1,2009-12-05T20:00:00Z,26.6493,-81.8810,2.06,7.0,1111122 
SCCF RECON,ioos:station:SCCF:53:1,2009-12-05T21:00:00Z,26.6493,-81.8810,2.1,7.01,1111122 
SCCF RECON,ioos:station:SCCF:53:1,2009-12-05T22:00:00Z,26.6493,-81.8810,2.11,7.06,1111122 
SCCF RECON,ioos:station:SCCF:53:1,2009-12-05T23:00:00Z,26.6493,-81.8810,2.085,7.16,1111122 
SCCF RECON,ioos:station:SCCF:53:1,2009-12-06T00:00:00Z,26.6493,-81.8810,2.092,7.13,1111122 
SCCF RECON,ioos:station:SCCF:53:1,2009-12-06T01:00:00Z,26.6493,-81.8810,2.06,7.15,1111122 
SCCF RECON,ioos:station:SCCF:53:1,2009-12-06T02:00:00Z,26.6493,-81.8810,2.027,7.1,1111122 
SCCF RECON,ioos:station:SCCF:53:1,2009-12-06T03:00:00Z,26.6493,-81.8810,1.99,7.11,1111122 
SCCF RECON,ioos:station:SCCF:53:1,2009-12-06T04:00:00Z,26.6493,-81.8810,1.952,7.15,1111122 
SCCF RECON,ioos:station:SCCF:53:1,2009-12-06T05:00:00Z,26.6493,-81.8810,1.93,7.14,1111122 
SCCF RECON,ioos:station:SCCF:53:1,2009-12-06T06:00:00Z,26.6493,-81.8810,1.96,7.13,1111122 
SCCF RECON,ioos:station:SCCF:53:1,2009-12-06T07:00:00Z,26.6493,-81.8810,2.014,7.19,1111122 
SCCF RECON,ioos:station:SCCF:53:1,2009-12-06T08:00:00Z,26.6493,-81.8810,2.06,7.22,1111122 
SCCF RECON,ioos:station:SCCF:53:1,2009-12-06T09:00:00Z,26.6493,-81.8810,2.11,7.26,1111122 
SCCF RECON,ioos:station:SCCF:53:1,2009-12-06T10:00:00Z,26.6493,-81.8810,2.16,7.29,1111122 
SCCF RECON,ioos:station:SCCF:53:1,2009-12-06T11:00:00Z,26.6493,-81.8810,2.17,7.3,1111122 
SCCF RECON,ioos:station:SCCF:53:1,2009-12-06T12:00:00Z,26.6493,-81.8810,2.14,7.32,1111122 
SCCF RECON,ioos:station:SCCF:53:1,2009-12-06T13:00:00Z,26.6493,-81.8810,2.1,7.26,1111122 
SCCF RECON,ioos:station:SCCF:53:1,2009-12-06T14:00:00Z,26.6493,-81.8810,2.07,7.18,1111122 
SCCF RECON,ioos:station:SCCF:53:1,2009-12-06T15:00:00Z,26.6493,-81.8810,2.02,7.22,1111122 
SCCF RECON,ioos:station:SCCF:53:1,2009-12-06T16:00:00Z,26.6493,-81.8810,1.972,7.23,1111122 
SCCF RECON,ioos:station:SCCF:53:1,2009-12-06T17:00:00Z,26.6493,-81.8810,1.92,7.29,1111122 
SCCF RECON,ioos:station:SCCF:53:1,2009-12-06T18:00:00Z,26.6493,-81.8810,1.87,7.34,1111122 
SCCF RECON,ioos:station:SCCF:53:1,2009-12-06T19:00:00Z,26.6493,-81.8810,1.843,7.31,1111122 
SCCF RECON,ioos:station:SCCF:53:1,2009-12-06T20:00:00Z,26.6493,-81.8810,1.883,7.17,1111122 
SCCF RECON,ioos:station:SCCF:53:1,2009-12-06T21:00:00Z,26.6493,-81.8810,1.936,7.34,1111122 
SCCF RECON,ioos:station:SCCF:53:1,2009-12-06T22:00:00Z,26.6493,-81.8810,1.991,7.41,1111122 
SCCF RECON,ioos:station:SCCF:53:1,2009-12-06T23:00:00Z,26.6493,-81.8810,2.06,7.38,1111122 
SCCF RECON,ioos:station:SCCF:53:1,2009-12-07T00:00:00Z,26.6493,-81.8810,2.12,7.42,1111122 
SCCF RECON,ioos:station:SCCF:53:1,2009-12-07T01:00:00Z,26.6493,-81.8810,2.16,7.53,1111122 
SCCF RECON,ioos:station:SCCF:53:1,2009-12-07T02:00:00Z,26.6493,-81.8810,2.17,7.61,1111122 
SCCF RECON,ioos:station:SCCF:53:1,2009-12-07T03:00:00Z,26.6493,-81.8810,2.14,7.6,1111122 
SCCF RECON,ioos:station:SCCF:53:1,2009-12-07T04:00:00Z,26.6493,-81.8810,2.09,7.5,1111122 
SCCF RECON,ioos:station:SCCF:53:1,2009-12-07T05:00:00Z,26.6493,-81.8810,2.07,7.41,1111122 
SCCF RECON,ioos:station:SCCF:53:1,2009-12-07T06:00:00Z,26.6493,-81.8810,2.07,7.33,1111122 
SCCF RECON,ioos:station:SCCF:53:1,2009-12-07T07:00:00Z,26.6493,-81.8810,2.13,7.3,1111122 
SCCF RECON,ioos:station:SCCF:53:1,2009-12-07T08:00:00Z,26.6493,-81.8810,2.18,7.36,1111122 
SCCF RECON,ioos:station:SCCF:53:1,2009-12-07T09:00:00Z,26.6493,-81.8810,2.24,7.37,1111122 
SCCF RECON,ioos:station:SCCF:53:1,2009-12-07T10:00:00Z,26.6493,-81.8810,2.29,7.33,1111122 
SCCF RECON,ioos:station:SCCF:53:1,2009-12-07T11:00:00Z,26.6493,-81.8810,2.33,7.28,1111122 
SCCF RECON,ioos:station:SCCF:53:1,2009-12-07T12:00:00Z,26.6493,-81.8810,2.35,7.25,1111122 
SCCF RECON,ioos:station:SCCF:53:1,2009-12-07T13:00:00Z,26.6493,-81.8810,2.32,7.25,1111122 
SCCF RECON,ioos:station:SCCF:53:1,2009-12-07T14:00:00Z,26.6493,-81.8810,2.278,7.39,1111122 
SCCF RECON,ioos:station:SCCF:53:1,2009-12-07T15:00:00Z,26.6493,-81.8810,2.228,7.17,1111122 
SCCF RECON,ioos:station:SCCF:53:1,2009-12-07T16:00:00Z,26.6493,-81.8810,2.162,7.16,1111122 
SCCF RECON,ioos:station:SCCF:53:1,2009-12-07T17:00:00Z,26.6493,-81.8810,2.1,7.11,1111122 
SCCF RECON,ioos:station:SCCF:53:1,2009-12-07T18:00:00Z,26.6493,-81.8810,2.05,7.03,1111122 
SCCF RECON,ioos:station:SCCF:53:1,2009-12-07T19:00:00Z,26.6493,-81.8810,2.002,7.01,1111122 
SCCF RECON,ioos:station:SCCF:53:1,2009-12-07T20:00:00Z,26.6493,-81.8810,2.0,7.04,1111122 
SCCF RECON,ioos:station:SCCF:53:1,2009-12-07T21:00:00Z,26.6493,-81.8810,2.054,7.06,1111122 
SCCF RECON,ioos:station:SCCF:53:1,2009-12-07T22:00:00Z,26.6493,-81.8810,2.1,7.42,1111122 
SCCF RECON,ioos:station:SCCF:53:1,2009-12-07T23:00:00Z,26.6493,-81.8810,2.14,7.09,1111122 
SCCF RECON,ioos:station:SCCF:53:1,2009-12-08T00:00:00Z,26.6493,-81.8810,2.2,7.17,1111122 
SCCF RECON,ioos:station:SCCF:53:1,2009-12-08T01:00:00Z,26.6493,-81.8810,2.23,7.11,1111122 
SCCF RECON,ioos:station:SCCF:53:1,2009-12-08T02:00:00Z,26.6493,-81.8810,2.24,7.05,1111122 
SCCF RECON,ioos:station:SCCF:53:1,2009-12-08T03:00:00Z,26.6493,-81.8810,2.21,6.87,1111122 
SCCF RECON,ioos:station:SCCF:53:1,2009-12-08T04:00:00Z,26.6493,-81.8810,2.16,7.04,1111122 
SCCF RECON,ioos:station:SCCF:53:1,2009-12-08T05:00:00Z,26.6493,-81.8810,2.12,6.52,1111122 
SCCF RECON,ioos:station:SCCF:53:1,2009-12-08T06:00:00Z,26.6493,-81.8810,2.07,6.8,1111122 
SCCF RECON,ioos:station:SCCF:53:1,2009-12-08T07:00:00Z,26.6493,-81.8810,2.05,6.73,1111122 
SCCF RECON,ioos:station:SCCF:53:1,2009-12-08T08:00:00Z,26.6493,-81.8810,2.06,6.75,1111122 
SCCF RECON,ioos:station:SCCF:53:1,2009-12-08T09:00:00Z,26.6493,-81.8810,2.1,7.0,1111122 
SCCF RECON,ioos:station:SCCF:53:1,2009-12-08T10:00:00Z,26.6493,-81.8810,2.154,7.14,1111122 
SCCF RECON,ioos:station:SCCF:53:1,2009-12-08T11:00:00Z,26.6493,-81.8810,2.21,7.1,1111122 
SCCF RECON,ioos:station:SCCF:53:1,2009-12-08T12:00:00Z,26.6493,-81.8810,2.26,7.24,1111122 
SCCF RECON,ioos:station:SCCF:53:1,2009-12-08T13:00:00Z,26.6493,-81.8810,2.3,7.44,1111122 
SCCF RECON,ioos:station:SCCF:53:1,2009-12-08T14:00:00Z,26.6493,-81.8810,2.3,7.09,1111122 
SCCF RECON,ioos:station:SCCF:53:1,2009-12-08T15:00:00Z,26.6493,-81.8810,2.26,7.06,1111122 
SCCF RECON,ioos:station:SCCF:53:1,2009-12-08T16:00:00Z,26.6493,-81.8810,2.2,7.23,1111122 
SCCF RECON,ioos:station:SCCF:53:1,2009-12-08T17:00:00Z,26.6493,-81.8810,2.14,7.12,1111122 
SCCF RECON,ioos:station:SCCF:53:1,2009-12-08T18:00:00Z,26.6493,-81.8810,2.08,7.05,1111122 
SCCF RECON,ioos:station:SCCF:53:1,2009-12-08T19:00:00Z,26.6493,-81.8810,2.04,6.99,1111122 
SCCF RECON,ioos:station:SCCF:53:1,2009-12-08T20:00:00Z,26.6493,-81.8810,2.014,7.0,1111122 
SCCF RECON,ioos:station:SCCF:53:1,2009-12-08T21:00:00Z,26.6493,-81.8810,2.059,7.15,1111122 
SCCF RECON,ioos:station:SCCF:53:1,2009-12-08T22:00:00Z,26.6493,-81.8810,2.11,7.15,1111122 
SCCF RECON,ioos:station:SCCF:53:1,2009-12-08T23:00:00Z,26.6493,-81.8810,2.151,7.56,1111122 
SCCF RECON,ioos:station:SCCF:53:1,2009-12-09T00:00:00Z,26.6493,-81.8810,2.22,7.27,1111122 
SCCF RECON,ioos:station:SCCF:53:1,2009-12-09T01:00:00Z,26.6493,-81.8810,2.27,7.22,1111122 
SCCF RECON,ioos:station:SCCF:53:1,2009-12-09T02:00:00Z,26.6493,-81.8810,2.3,7.18,1111122 
SCCF RECON,ioos:station:SCCF:53:1,2009-12-09T03:00:00Z,26.6493,-81.8810,2.32,7.19,1111122 
SCCF RECON,ioos:station:SCCF:53:1,2009-12-09T04:00:00Z,26.6493,-81.8810,2.287,7.0,1111122 
SCCF RECON,ioos:station:SCCF:53:1,2009-12-09T05:00:00Z,26.6493,-81.8810,2.24,7.1,1111122 
SCCF RECON,ioos:station:SCCF:53:1,2009-12-09T06:00:00Z,26.6493,-81.8810,2.19,7.17,1111122 
SCCF RECON,ioos:station:SCCF:53:1,2009-12-09T07:00:00Z,26.6493,-81.8810,2.14,7.09,1111122 
SCCF RECON,ioos:station:SCCF:53:1,2009-12-09T08:00:00Z,26.6493,-81.8810,2.1,6.99,1111122 
SCCF RECON,ioos:station:SCCF:53:1,2009-12-09T09:00:00Z,26.6493,-81.8810,2.09,6.97,1111122 
SCCF RECON,ioos:station:SCCF:53:1,2009-12-09T10:00:00Z,26.6493,-81.8810,2.13,7.0,1111122 
SCCF RECON,ioos:station:SCCF:53:1,2009-12-09T11:00:00Z,26.6493,-81.8810,2.19,6.86,1111122 
SCCF RECON,ioos:station:SCCF:53:1,2009-12-09T12:00:00Z,26.6493,-81.8810,2.231,6.93,1111122 
SCCF RECON,ioos:station:SCCF:53:1,2009-12-09T13:00:00Z,26.6493,-81.8810,2.29,6.88,1111122 
SCCF RECON,ioos:station:SCCF:53:1,2009-12-09T14:00:00Z,26.6493,-81.8810,2.33,6.66,1111122 
SCCF RECON,ioos:station:SCCF:53:1,2009-12-09T15:00:00Z,26.6493,-81.8810,2.338,6.61,1111122 
SCCF RECON,ioos:station:SCCF:53:1,2009-12-09T16:00:00Z,26.6493,-81.8810,2.301,7.8,1111122 
SCCF RECON,ioos:station:SCCF:53:1,2009-12-09T17:00:00Z,26.6493,-81.8810,2.255,7.78,1111122 
SCCF RECON,ioos:station:SCCF:53:1,2009-12-09T18:00:00Z,26.6493,-81.8810,2.203,7.36,1111122 
SCCF RECON,ioos:station:SCCF:53:1,2009-12-09T19:00:00Z,26.6493,-81.8810,2.155,7.11,1111122 
SCCF RECON,ioos:station:SCCF:53:1,2009-12-09T20:00:00Z,26.6493,-81.8810,2.117,6.79,1111122 
SCCF RECON,ioos:station:SCCF:53:1,2009-12-09T21:00:00Z,26.6493,-81.8810,2.109,7.07,1111122 
SCCF RECON,ioos:station:SCCF:53:1,2009-12-09T22:00:00Z,26.6493,-81.8810,2.154,6.72,1111122 
SCCF RECON,ioos:station:SCCF:53:1,2009-12-09T23:00:00Z,26.6493,-81.8810,2.201,7.67,1111122 
SCCF RECON,ioos:station:SCCF:53:1,2009-12-10T00:00:00Z,26.6493,-81.8810,2.25,7.69,1111122 
SCCF RECON,ioos:station:SCCF:53:1,2009-12-10T01:00:00Z,26.6493,-81.8810,2.31,7.85,1111122 
SCCF RECON,ioos:station:SCCF:53:1,2009-12-10T02:00:00Z,26.6493,-81.8810,2.36,7.7,1111122 
SCCF RECON,ioos:station:SCCF:53:1,2009-12-10T03:00:00Z,26.6493,-81.8810,2.399,7.74,1111122 
SCCF RECON,ioos:station:SCCF:53:1,2009-12-10T04:00:00Z,26.6493,-81.8810,2.39,7.74,1111122 
SCCF RECON,ioos:station:SCCF:53:1,2009-12-10T05:00:00Z,26.6493,-81.8810,2.341,7.68,1111122 
SCCF RECON,ioos:station:SCCF:53:1,2009-12-10T06:00:00Z,26.6493,-81.8810,2.29,7.94,1111122 
SCCF RECON,ioos:station:SCCF:53:1,2009-12-10T07:00:00Z,26.6493,-81.8810,2.231,7.72,1111122 
SCCF RECON,ioos:station:SCCF:53:1,2009-12-10T08:00:00Z,26.6493,-81.8810,2.18,7.22,1111122 
SCCF RECON,ioos:station:SCCF:53:1,2009-12-10T09:00:00Z,26.6493,-81.8810,2.13,7.09,1111122 
SCCF RECON,ioos:station:SCCF:53:1,2009-12-10T10:00:00Z,26.6493,-81.8810,2.09,6.98,1111122 
SCCF RECON,ioos:station:SCCF:53:1,2009-12-10T11:00:00Z,26.6493,-81.8810,2.09,6.79,1111122 
SCCF RECON,ioos:station:SCCF:53:1,2009-12-10T12:00:00Z,26.6493,-81.8810,2.13,7.19,1111122 
SCCF RECON,ioos:station:SCCF:53:1,2009-12-10T13:00:00Z,26.6493,-81.8810,2.177,7.23,1111122 
SCCF RECON,ioos:station:SCCF:53:1,2009-12-10T14:00:00Z,26.6493,-81.8810,2.229,7.14,1111122 
SCCF RECON,ioos:station:SCCF:53:1,2009-12-10T15:00:00Z,26.6493,-81.8810,2.28,7.27,1111122 
SCCF RECON,ioos:station:SCCF:53:1,2009-12-10T16:00:00Z,26.6493,-81.8810,2.31,7.29,1111122 
SCCF RECON,ioos:station:SCCF:53:1,2009-12-10T18:00:00Z,26.6493,-81.8810,2.298,7.91,1111122 
SCCF RECON,ioos:station:SCCF:53:1,2009-12-10T19:00:00Z,26.6493,-81.8810,2.253,8.24,1111122 
SCCF RECON,ioos:station:SCCF:53:1,2009-12-10T20:00:00Z,26.6493,-81.8810,2.212,8.38,1111122 
SCCF RECON,ioos:station:SCCF:53:1,2009-12-10T21:00:00Z,26.6493,-81.8810,2.174,7.48,1111122 
SCCF RECON,ioos:station:SCCF:53:1,2009-12-10T22:00:00Z,26.6493,-81.8810,2.17,7.05,1111122 
SCCF RECON,ioos:station:SCCF:53:1,2009-12-10T23:00:00Z,26.6493,-81.8810,2.209,7.39,1111122 
SCCF RECON,ioos:station:SCCF:53:1,2009-12-11T00:00:00Z,26.6493,-81.8810,2.261,7.74,1111122 
SCCF RECON,ioos:station:SCCF:53:1,2009-12-11T01:00:00Z,26.6493,-81.8810,2.316,8.22,1111122 
SCCF RECON,ioos:station:SCCF:53:1,2009-12-11T02:00:00Z,26.6493,-81.8810,2.35,8.28,1111122 
SCCF RECON,ioos:station:SCCF:53:1,2009-12-11T03:00:00Z,26.6493,-81.8810,2.366,8.19,1111122 
SCCF RECON,ioos:station:SCCF:53:1,2009-12-11T04:00:00Z,26.6493,-81.8810,2.34,8.0,1111122 
SCCF RECON,ioos:station:SCCF:53:1,2009-12-11T05:00:00Z,26.6493,-81.8810,2.288,7.8,1111122 
SCCF RECON,ioos:station:SCCF:53:1,2009-12-11T06:00:00Z,26.6493,-81.8810,2.23,7.46,1111122 
SCCF RECON,ioos:station:SCCF:53:1,2009-12-11T07:00:00Z,26.6493,-81.8810,2.181,7.27,1111122 
SCCF RECON,ioos:station:SCCF:53:1,2009-12-11T08:00:00Z,26.6493,-81.8810,2.127,7.25,1111122 
SCCF RECON,ioos:station:SCCF:53:1,2009-12-11T09:00:00Z,26.6493,-81.8810,2.072,7.23,1111122 
SCCF RECON,ioos:station:SCCF:53:1,2009-12-11T10:00:00Z,26.6493,-81.8810,2.024,7.22,1111122 
SCCF RECON,ioos:station:SCCF:53:1,2009-12-11T11:00:00Z,26.6493,-81.8810,1.979,7.28,1111122 
SCCF RECON,ioos:station:SCCF:53:1,2009-12-11T12:00:00Z,26.6493,-81.8810,1.941,7.27,1111122 
SCCF RECON,ioos:station:SCCF:53:1,2009-12-11T13:00:00Z,26.6493,-81.8810,1.939,7.35,1111122 
SCCF RECON,ioos:station:SCCF:53:1,2009-12-11T14:00:00Z,26.6493,-81.8810,1.949,7.35,1111122 
SCCF RECON,ioos:station:SCCF:53:1,2009-12-11T15:00:00Z,26.6493,-81.8810,1.999,7.41,1111122 
SCCF RECON,ioos:station:SCCF:53:1,2009-12-11T16:00:00Z,26.6493,-81.8810,2.025,7.6,1111122 
SCCF RECON,ioos:station:SCCF:53:1,2009-12-11T17:00:00Z,26.6493,-81.8810,2.039,7.76,1111122 
SCCF RECON,ioos:station:SCCF:53:1,2009-12-11T18:00:00Z,26.6493,-81.8810,2.043,7.72,1111122 
SCCF RECON,ioos:station:SCCF:53:1,2009-12-11T19:00:00Z,26.6493,-81.8810,2.028,7.75,1111122 
SCCF RECON,ioos:station:SCCF:53:1,2009-12-11T20:00:00Z,26.6493,-81.8810,2.005,7.64,1111122 
SCCF RECON,ioos:station:SCCF:53:1,2009-12-11T21:00:00Z,26.6493,-81.8810,1.99,7.76,1111122 
SCCF RECON,ioos:station:SCCF:53:1,2009-12-11T22:00:00Z,26.6493,-81.8810,1.989,7.83,1111122 